SCX458 KAUS-KGPT

Flight info

Callsign SCX458
Flight time 1h 13m
Altitude 37000
Route ILEXY4 ZENZI IAH J2 LCH HRV
Aircraft B738/M-SDE2E3FGHIRWXY/LB1

Departure

Time 2026-04-26 15:01
Airport Austin Bergstrom International Airport (KAUS)

Arrival

Time 2026-04-26 16:14
Airport Gulfport Biloxi International Airport (KGPT)
Time Latitude Longitude Altitude Speed Heading
2026-04-26 14:45 30.20258 -97.66229 526 ft 0 kts 276°
2026-04-26 14:55 30.20258 -97.66228 526 ft 1 kts 276°
2026-04-26 14:56 30.20256 -97.66210 526 ft 3 kts 272°
2026-04-26 14:56 30.20256 -97.66187 526 ft 3 kts 264°
2026-04-26 14:56 30.20259 -97.66164 526 ft 3 kts 248°
2026-04-26 14:56 30.20268 -97.66146 517 ft 3 kts 211°
2026-04-26 14:57 30.20278 -97.66141 517 ft 1 kts 178°
2026-04-26 14:59 30.20274 -97.66141 517 ft 5 kts 178°
2026-04-26 14:59 30.20263 -97.66136 526 ft 5 kts 152°
2026-04-26 15:00 30.20270 -97.66027 526 ft 13 kts 66°
2026-04-26 15:00 30.20299 -97.65927 527 ft 13 kts 88°
2026-04-26 15:00 30.20300 -97.65825 527 ft 13 kts 97°
2026-04-26 15:00 30.20215 -97.65785 525 ft 28 kts 176°
2026-04-26 15:01 30.19643 -97.65771 525 ft 132 kts 179°
2026-04-26 15:01 30.18441 -97.65735 639 ft 206 kts 178°
2026-04-26 15:01 30.16939 -97.65672 1502 ft 225 kts 178°
2026-04-26 15:01 30.15361 -97.65575 2705 ft 229 kts 178°
2026-04-26 15:02 30.13667 -97.65466 2871 ft 258 kts 179°
2026-04-26 15:02 30.11906 -97.65187 3025 ft 257 kts 158°
2026-04-26 15:02 30.10641 -97.63789 3665 ft 260 kts 120°
2026-04-26 15:02 30.10292 -97.61688 4408 ft 278 kts 84°
2026-04-26 15:03 30.11018 -97.59615 5141 ft 283 kts 49°
2026-04-26 15:03 30.11990 -97.58635 5615 ft 281 kts 27°
2026-04-26 15:03 30.13809 -97.57920 6373 ft 275 kts 16°
2026-04-26 15:03 30.15383 -97.56650 7030 ft 282 kts 52°
2026-04-26 15:04 30.16270 -97.54611 7783 ft 288 kts 67°
2026-04-26 15:04 30.17020 -97.52432 8501 ft 294 kts 66°
2026-04-26 15:04 30.17797 -97.50244 9232 ft 293 kts 65°
2026-04-26 15:04 30.18605 -97.48079 9744 ft 295 kts 64°
2026-04-26 15:05 30.19458 -97.45890 10302 ft 303 kts 63°
2026-04-26 15:05 30.20053 -97.44403 10705 ft 313 kts 63°
2026-04-26 15:05 30.21319 -97.41300 11516 ft 331 kts 63°
2026-04-26 15:05 30.22329 -97.38860 12153 ft 343 kts 62°
2026-04-26 15:06 30.23384 -97.36331 12800 ft 354 kts 62°
2026-04-26 15:06 30.24472 -97.33735 13431 ft 364 kts 62°
2026-04-26 15:06 30.25594 -97.31062 14032 ft 374 kts 62°
2026-04-26 15:06 30.26744 -97.28322 14603 ft 383 kts 61°
2026-04-26 15:07 30.29116 -97.22667 15806 ft 398 kts 61°
2026-04-26 15:07 30.30336 -97.19753 16425 ft 405 kts 61°
2026-04-26 15:07 30.31574 -97.16796 17054 ft 411 kts 60°
2026-04-26 15:08 30.32829 -97.13797 17687 ft 416 kts 60°
2026-04-26 15:08 30.34096 -97.10769 18303 ft 421 kts 60°
2026-04-26 15:08 30.35097 -97.07560 18840 ft 432 kts 77°
2026-04-26 15:08 30.35193 -97.04067 19457 ft 438 kts 92°
2026-04-26 15:09 30.34957 -97.00534 20057 ft 441 kts 94°
2026-04-26 15:09 30.34693 -96.96976 20642 ft 445 kts 94°
2026-04-26 15:09 30.34440 -96.93387 21259 ft 448 kts 94°
2026-04-26 15:09 30.34207 -96.89781 21889 ft 450 kts 93°
2026-04-26 15:10 30.33992 -96.86205 22527 ft 452 kts 93°
2026-04-26 15:10 30.33846 -96.83751 22955 ft 453 kts 93°
2026-04-26 15:10 30.33555 -96.78867 23750 ft 455 kts 93°
2026-04-26 15:10 30.33333 -96.75254 24305 ft 456 kts 93°
2026-04-26 15:11 30.33105 -96.71589 24873 ft 457 kts 93°
2026-04-26 15:11 30.32874 -96.67911 25357 ft 460 kts 93°
2026-04-26 15:11 30.32640 -96.64174 25664 ft 469 kts 93°
2026-04-26 15:11 30.32402 -96.60380 25986 ft 476 kts 93°
2026-04-26 15:12 30.32160 -96.56532 26312 ft 482 kts 94°
2026-04-26 15:12 30.31913 -96.52637 26668 ft 488 kts 94°
2026-04-26 15:12 30.31662 -96.48688 27007 ft 494 kts 94°
2026-04-26 15:12 30.31410 -96.44700 27354 ft 499 kts 93°
2026-04-26 15:13 30.31155 -96.40668 27686 ft 502 kts 93°
2026-04-26 15:13 30.30903 -96.36694 28001 ft 503 kts 93°
2026-04-26 15:13 30.30645 -96.32652 28330 ft 503 kts 93°
2026-04-26 15:13 30.30386 -96.28607 28661 ft 504 kts 93°
2026-04-26 15:14 30.30125 -96.24559 28998 ft 504 kts 93°
2026-04-26 15:14 30.29863 -96.20515 29320 ft 504 kts 93°
2026-04-26 15:14 30.29600 -96.16470 29651 ft 504 kts 94°
2026-04-26 15:14 30.29336 -96.12423 29951 ft 504 kts 93°
2026-04-26 15:15 30.29064 -96.08376 30275 ft 504 kts 95°
2026-04-26 15:15 30.28336 -96.04414 30542 ft 504 kts 112°
2026-04-26 15:15 30.26805 -96.00791 30898 ft 500 kts 121°
2026-04-26 15:15 30.25128 -95.97275 31199 ft 500 kts 121°
2026-04-26 15:16 30.23432 -95.93769 31512 ft 499 kts 121°
2026-04-26 15:16 30.21744 -95.90258 31877 ft 499 kts 121°
2026-04-26 15:16 30.20077 -95.86746 32198 ft 498 kts 121°
2026-04-26 15:16 30.18424 -95.83224 32523 ft 498 kts 120°
2026-04-26 15:17 30.16782 -95.79700 32853 ft 497 kts 120°
2026-04-26 15:17 30.15700 -95.77371 33140 ft 497 kts 120°
2026-04-26 15:17 30.13535 -95.72712 33576 ft 496 kts 120°
2026-04-26 15:17 30.11902 -95.69200 33920 ft 496 kts 120°
2026-04-26 15:18 30.10267 -95.65692 34214 ft 496 kts 120°
2026-04-26 15:18 30.08626 -95.62177 34613 ft 496 kts 120°
2026-04-26 15:18 30.06986 -95.58667 34904 ft 497 kts 120°
2026-04-26 15:18 30.05345 -95.55160 35207 ft 497 kts 120°
2026-04-26 15:19 30.03698 -95.51644 35520 ft 498 kts 120°
2026-04-26 15:19 30.02054 -95.48133 35831 ft 498 kts 120°
2026-04-26 15:19 30.00404 -95.44614 36144 ft 499 kts 120°
2026-04-26 15:19 29.98751 -95.41091 36443 ft 499 kts 120°
2026-04-26 15:20 29.97118 -95.37560 36766 ft 499 kts 116°
2026-04-26 15:20 29.96059 -95.33747 36923 ft 503 kts 97°
2026-04-26 15:20 29.95949 -95.29726 36923 ft 502 kts 80°
2026-04-26 15:20 29.96318 -95.25700 36933 ft 509 kts 79°
2026-04-26 15:21 29.97171 -95.17524 36923 ft 523 kts 79°
2026-04-26 15:21 29.98008 -95.09070 36917 ft 537 kts 79°
2026-04-26 15:22 29.98792 -95.00425 36907 ft 544 kts 80°
2026-04-26 15:22 29.99549 -94.91721 36897 ft 543 kts 80°
2026-04-26 15:23 30.00286 -94.83175 36891 ft 535 kts 80°
2026-04-26 15:23 30.01027 -94.74620 36906 ft 535 kts 80°
2026-04-26 15:24 30.01767 -94.66084 36907 ft 535 kts 80°
2026-04-26 15:24 30.02501 -94.57530 36916 ft 535 kts 80°
2026-04-26 15:25 30.03104 -94.50432 36922 ft 535 kts 80°
2026-04-26 15:25 30.03947 -94.40435 36923 ft 535 kts 80°
2026-04-26 15:26 30.04661 -94.31895 36937 ft 535 kts 80°
2026-04-26 15:26 30.05369 -94.23371 37786 ft 531 kts 83°
2026-04-26 15:27 30.05718 -94.19126 36826 ft 532 kts 80°
2026-04-26 15:27 30.06067 -94.14877 36902 ft 532 kts 79°
2026-04-26 15:27 30.06758 -94.06440 36922 ft 532 kts 79°
2026-04-26 15:28 30.07448 -93.97935 36931 ft 532 kts 79°
2026-04-26 15:28 30.08132 -93.89417 36956 ft 532 kts 80°
2026-04-26 15:29 30.08810 -93.80909 36966 ft 532 kts 79°
2026-04-26 15:30 30.10128 -93.64119 36941 ft 521 kts 79°
2026-04-26 15:30 30.10778 -93.55789 36951 ft 521 kts 79°
2026-04-26 15:31 30.11742 -93.43292 36972 ft 521 kts 79°
2026-04-26 15:32 30.12587 -93.32176 36960 ft 522 kts 79°
2026-04-26 15:32 30.13318 -93.22462 36955 ft 522 kts 79°
2026-04-26 15:33 30.13942 -93.14097 36956 ft 523 kts 79°
2026-04-26 15:33 30.14107 -93.05658 36965 ft 529 kts 90°
2026-04-26 15:34 30.13331 -92.97181 36946 ft 530 kts 93°
2026-04-26 15:34 30.12449 -92.88788 36937 ft 528 kts 92°
2026-04-26 15:35 30.11662 -92.80344 36779 ft 530 kts 92°
2026-04-26 15:35 30.11298 -92.76132 36356 ft 523 kts 91°
2026-04-26 15:35 30.10947 -92.71994 35989 ft 515 kts 91°
2026-04-26 15:36 30.10603 -92.67905 35617 ft 508 kts 91°
2026-04-26 15:36 30.10262 -92.63868 35277 ft 501 kts 92°
2026-04-26 15:36 30.09924 -92.59887 34914 ft 494 kts 92°
2026-04-26 15:36 30.09588 -92.55956 34565 ft 488 kts 92°
2026-04-26 15:37 30.09254 -92.52077 34216 ft 483 kts 92°
2026-04-26 15:37 30.08922 -92.48244 33843 ft 478 kts 91°
2026-04-26 15:37 30.08596 -92.44490 33438 ft 473 kts 92°
2026-04-26 15:37 30.08267 -92.40723 33054 ft 469 kts 92°
2026-04-26 15:38 30.07941 -92.37000 32673 ft 463 kts 92°
2026-04-26 15:38 30.07617 -92.33318 32297 ft 461 kts 92°
2026-04-26 15:38 30.07293 -92.29633 31925 ft 462 kts 92°
2026-04-26 15:38 30.06967 -92.25926 31599 ft 467 kts 92°
2026-04-26 15:39 30.06637 -92.22174 31243 ft 470 kts 92°
2026-04-26 15:39 30.06304 -92.18422 30886 ft 470 kts 92°
2026-04-26 15:39 30.05968 -92.14668 30534 ft 470 kts 92°
2026-04-26 15:39 30.05744 -92.12178 30304 ft 470 kts 92°
2026-04-26 15:40 30.05297 -92.07216 29785 ft 466 kts 92°
2026-04-26 15:40 30.04960 -92.03500 29236 ft 464 kts 92°
2026-04-26 15:40 30.04625 -91.99803 28713 ft 461 kts 92°
2026-04-26 15:40 30.04291 -91.96138 28194 ft 458 kts 93°
2026-04-26 15:41 30.03959 -91.92490 27683 ft 455 kts 93°
2026-04-26 15:41 30.03628 -91.88870 27192 ft 452 kts 92°
2026-04-26 15:41 30.03297 -91.85264 26695 ft 450 kts 93°
2026-04-26 15:41 30.02969 -91.81690 26213 ft 447 kts 93°
2026-04-26 15:42 30.02641 -91.78133 25737 ft 445 kts 93°
2026-04-26 15:42 30.02314 -91.74591 25275 ft 442 kts 93°
2026-04-26 15:42 30.01988 -91.71082 24905 ft 437 kts 93°
2026-04-26 15:42 30.01669 -91.67660 24553 ft 433 kts 93°
2026-04-26 15:43 30.01348 -91.64221 24181 ft 429 kts 93°
2026-04-26 15:43 30.01029 -91.60810 23829 ft 426 kts 93°
2026-04-26 15:43 30.00394 -91.54044 23028 ft 420 kts 94°
2026-04-26 15:44 30.00080 -91.50707 22636 ft 417 kts 94°
2026-04-26 15:44 29.99455 -91.44112 21819 ft 410 kts 94°
2026-04-26 15:44 29.99145 -91.40849 21419 ft 407 kts 94°
2026-04-26 15:45 29.98531 -91.34413 20637 ft 400 kts 94°
2026-04-26 15:45 29.98226 -91.31231 20247 ft 397 kts 94°
2026-04-26 15:46 29.97621 -91.24941 19512 ft 392 kts 95°
2026-04-26 15:46 29.97320 -91.21823 19118 ft 390 kts 95°
2026-04-26 15:46 29.97021 -91.18731 18750 ft 386 kts 95°
2026-04-26 15:46 29.96924 -91.17729 18629 ft 385 kts 95°
2026-04-26 15:47 29.96427 -91.12618 18001 ft 379 kts 95°
2026-04-26 15:47 29.95843 -91.06637 17178 ft 372 kts 95°
2026-04-26 15:47 29.95553 -91.03679 16787 ft 370 kts 96°
2026-04-26 15:48 29.95268 -91.00776 16382 ft 368 kts 96°
2026-04-26 15:48 29.94981 -90.97856 16003 ft 365 kts 96°
2026-04-26 15:48 29.94694 -90.94947 15628 ft 362 kts 96°
2026-04-26 15:48 29.94411 -90.92080 15288 ft 357 kts 96°
2026-04-26 15:49 29.94131 -90.89254 14953 ft 352 kts 96°
2026-04-26 15:49 29.93854 -90.86467 14622 ft 348 kts 96°
2026-04-26 15:49 29.93579 -90.83708 14298 ft 344 kts 96°
2026-04-26 15:49 29.93308 -90.80983 13977 ft 340 kts 96°
2026-04-26 15:50 29.93039 -90.78292 13638 ft 336 kts 96°
2026-04-26 15:50 29.92771 -90.75620 13280 ft 333 kts 96°
2026-04-26 15:50 29.92507 -90.72985 12927 ft 329 kts 96°
2026-04-26 15:50 29.92244 -90.70374 12576 ft 326 kts 96°
2026-04-26 15:51 29.91983 -90.67786 12225 ft 323 kts 96°
2026-04-26 15:51 29.91724 -90.65222 11880 ft 321 kts 96°
2026-04-26 15:51 29.91553 -90.63535 11652 ft 319 kts 96°
2026-04-26 15:51 29.91297 -90.60999 11312 ft 316 kts 96°
2026-04-26 15:52 29.90958 -90.57670 10873 ft 314 kts 97°
2026-04-26 15:52 29.90787 -90.55982 10655 ft 313 kts 97°
2026-04-26 15:52 29.90537 -90.53525 10330 ft 312 kts 97°
2026-04-26 15:52 29.90283 -90.51040 10004 ft 310 kts 97°
2026-04-26 15:53 29.90031 -90.48576 9658 ft 309 kts 97°
2026-04-26 15:53 29.89780 -90.46129 9352 ft 306 kts 97°
2026-04-26 15:53 29.89531 -90.43704 9074 ft 304 kts 97°
2026-04-26 15:53 29.89283 -90.41288 8804 ft 302 kts 97°
2026-04-26 15:54 29.89037 -90.38894 8549 ft 298 kts 97°
2026-04-26 15:54 29.88794 -90.36549 8325 ft 292 kts 97°
2026-04-26 15:54 29.88556 -90.34246 8133 ft 287 kts 97°
2026-04-26 15:54 29.88322 -90.31987 7953 ft 281 kts 97°
2026-04-26 15:55 29.88093 -90.29777 7775 ft 275 kts 97°
2026-04-26 15:55 29.87861 -90.27547 7680 ft 285 kts 97°
2026-04-26 15:55 29.87624 -90.25270 7545 ft 288 kts 97°
2026-04-26 15:55 29.87388 -90.23005 7435 ft 289 kts 97°
2026-04-26 15:56 29.87147 -90.20701 7304 ft 290 kts 97°
2026-04-26 15:56 29.86906 -90.18392 7197 ft 292 kts 97°
2026-04-26 15:56 29.86662 -90.16063 7061 ft 293 kts 97°
2026-04-26 15:56 29.86416 -90.13726 6917 ft 294 kts 97°
2026-04-26 15:57 29.86171 -90.11391 6799 ft 293 kts 97°
2026-04-26 15:57 29.85927 -90.09067 6668 ft 292 kts 97°
2026-04-26 15:57 29.85683 -90.06748 6534 ft 288 kts 97°
2026-04-26 15:57 29.85524 -90.05250 6450 ft 282 kts 97°
2026-04-26 15:58 29.85212 -90.02305 6251 ft 272 kts 97°
2026-04-26 15:58 29.85214 -90.00169 6072 ft 264 kts 74°
2026-04-26 15:58 29.85936 -89.98264 5949 ft 262 kts 61°
2026-04-26 15:58 29.86862 -89.96357 5850 ft 281 kts 59°
2026-04-26 15:59 29.87865 -89.94348 5746 ft 298 kts 59°
2026-04-26 15:59 29.88924 -89.92230 5620 ft 312 kts 59°
2026-04-26 15:59 29.90026 -89.90018 5497 ft 324 kts 59°
2026-04-26 15:59 29.91148 -89.87756 5369 ft 333 kts 59°
2026-04-26 16:00 29.92309 -89.85404 5237 ft 341 kts 60°
2026-04-26 16:00 29.93493 -89.83000 5120 ft 347 kts 60°
2026-04-26 16:00 29.94693 -89.80555 5008 ft 354 kts 60°
2026-04-26 16:00 29.95918 -89.78055 4891 ft 361 kts 60°
2026-04-26 16:01 29.97158 -89.75522 4726 ft 361 kts 60°
2026-04-26 16:01 29.98359 -89.73065 4584 ft 343 kts 60°
2026-04-26 16:01 29.99510 -89.70708 4431 ft 330 kts 60°
2026-04-26 16:01 30.00615 -89.68444 4244 ft 317 kts 60°
2026-04-26 16:02 30.01672 -89.66278 4113 ft 303 kts 60°
2026-04-26 16:02 30.02686 -89.64198 3967 ft 291 kts 60°
2026-04-26 16:02 30.03650 -89.62221 3828 ft 281 kts 60°
2026-04-26 16:02 30.04290 -89.60909 3745 ft 275 kts 61°
2026-04-26 16:03 30.05506 -89.58414 3554 ft 264 kts 61°
2026-04-26 16:03 30.06393 -89.56593 3403 ft 256 kts 61°
2026-04-26 16:03 30.07253 -89.54826 3283 ft 249 kts 61°
2026-04-26 16:03 30.08092 -89.53099 3146 ft 244 kts 61°
2026-04-26 16:04 30.08917 -89.51403 3046 ft 241 kts 62°
2026-04-26 16:04 30.09728 -89.49732 3009 ft 236 kts 61°
2026-04-26 16:04 30.10522 -89.48092 2994 ft 231 kts 61°
2026-04-26 16:04 30.11303 -89.46481 2983 ft 228 kts 62°
2026-04-26 16:05 30.12063 -89.44918 2963 ft 217 kts 60°
2026-04-26 16:05 30.12781 -89.43440 2971 ft 204 kts 60°
2026-04-26 16:05 30.13457 -89.42046 2971 ft 194 kts 60°
2026-04-26 16:05 30.14097 -89.40724 2968 ft 183 kts 60°
2026-04-26 16:06 30.14697 -89.39486 2958 ft 170 kts 60°
2026-04-26 16:06 30.15274 -89.38295 2715 ft 173 kts 61°
2026-04-26 16:06 30.15900 -89.37001 2252 ft 190 kts 61°
2026-04-26 16:06 30.16529 -89.35702 2195 ft 181 kts 61°
2026-04-26 16:07 30.17129 -89.34463 2159 ft 173 kts 61°
2026-04-26 16:07 30.17729 -89.33227 1856 ft 180 kts 61°
2026-04-26 16:07 30.18338 -89.31984 1617 ft 179 kts 60°
2026-04-26 16:07 30.18957 -89.30720 1244 ft 185 kts 61°
2026-04-26 16:08 30.19579 -89.29410 960 ft 184 kts 62°
2026-04-26 16:08 30.20177 -89.28132 801 ft 177 kts 62°
2026-04-26 16:08 30.20804 -89.26815 817 ft 202 kts 61°
2026-04-26 16:08 30.21439 -89.25467 1016 ft 184 kts 62°
2026-04-26 16:09 30.22040 -89.24180 920 ft 184 kts 62°
2026-04-26 16:09 30.22667 -89.22856 750 ft 188 kts 60°
2026-04-26 16:09 30.23357 -89.21431 785 ft 234 kts 60°
2026-04-26 16:09 30.24184 -89.19723 1017 ft 245 kts 61°
2026-04-26 16:10 30.25043 -89.17944 1381 ft 257 kts 60°
2026-04-26 16:10 30.25947 -89.16135 1517 ft 262 kts 59°
2026-04-26 16:10 30.26928 -89.14281 1374 ft 277 kts 57°
2026-04-26 16:10 30.27962 -89.12431 1768 ft 267 kts 55°
2026-04-26 16:11 30.29022 -89.10690 1770 ft 277 kts 54°
2026-04-26 16:11 30.30138 -89.08866 1142 ft 276 kts 54°
2026-04-26 16:11 30.31192 -89.07138 1030 ft 250 kts 55°
2026-04-26 16:11 30.32167 -89.05530 679 ft 240 kts 54°
2026-04-26 16:12 30.33078 -89.04026 654 ft 216 kts 55°
2026-04-26 16:12 30.33900 -89.02594 325 ft 214 kts 54°
2026-04-26 16:12 30.36362 -89.00808 408 ft 211 kts 348°
2026-04-26 16:13 30.37369 -89.01787 301 ft 199 kts 289°
2026-04-26 16:13 30.37890 -89.03279 406 ft 195 kts 297°
2026-04-26 16:13 30.38603 -89.04598 443 ft 192 kts 306°
2026-04-26 16:13 30.39384 -89.05819 205 ft 187 kts 313°
2026-04-26 16:14 30.40303 -89.06840 38 ft 172 kts 315°
2026-04-26 16:14 30.40829 -89.07455 35 ft 78 kts 315°
2026-04-26 16:14 30.41198 -89.07632 36 ft 26 kts 51°
2026-04-26 16:15 30.41273 -89.07468 34 ft 15 kts 55°
2026-04-26 16:15 30.41311 -89.07431 36 ft 4 kts 69°
2026-04-26 16:15 30.41319 -89.07404 36 ft 1 kts 70°
2026-04-26 16:16 30.41320 -89.07402 36 ft 0 kts 68°